Time,TemperatureF,DewpointF,PressureIn,WindDirection,WindDirectionDegrees,WindSpeedMPH,WindSpeedGustMPH,Humidity,HourlyPrecipIn,Conditions,Clouds,dailyrainin,SolarRadiationWatts/m^2,SoftwareType,DateUTC
2013-01-21 00:00:00,44.7,42.5,30.11,South,188,0.0,0.0,92,0.00,,---,0.00,0.00,VWS V14.00,2013-01-21 06:00:00,
2013-01-21 00:02:00,44.6,42.4,30.11,South,188,0.0,0.0,92,0.00,,---,0.00,0.00,VWS V14.00,2013-01-21 06:02:00,
2013-01-21 00:07:00,44.6,42.4,30.11,South,188,0.0,0.0,92,0.00,,---,0.00,0.00,VWS V14.00,2013-01-21 06:07:00,
2013-01-21 00:11:00,44.5,42.3,30.11,South,188,0.0,0.0,92,0.00,,---,0.00,0.00,VWS V14.00,2013-01-21 06:11:00,
2013-01-21 00:15:00,44.4,42.2,30.11,South,188,0.0,0.0,92,0.00,,---,0.00,0.00,VWS V14.00,2013-01-21 06:15:00,
2013-01-21 00:19:00,44.3,42.1,30.11,South,188,0.0,0.0,92,0.00,,---,0.00,0.00,VWS V14.00,2013-01-21 06:19:00,
2013-01-21 00:23:00,44.1,41.9,30.11,South,188,0.0,0.0,92,0.00,,---,0.00,0.00,VWS V14.00,2013-01-21 06:23:00,
2013-01-21 00:27:00,44.2,42.0,30.11,South,188,0.0,0.0,92,0.00,,---,0.00,0.00,VWS V14.00,2013-01-21 06:27:00,
2013-01-21 00:30:00,44.1,41.9,30.11,South,188,0.0,0.0,92,0.00,,---,0.00,0.00,VWS V14.00,2013-01-21 06:30:00,
2013-01-21 00:31:00,44.1,41.9,30.11,South,188,0.0,0.0,92,0.00,,---,0.00,0.00,VWS V14.00,2013-01-21 06:31:00,
2013-01-21 00:35:00,44.1,41.9,30.11,South,188,0.0,0.0,92,0.00,,---,0.00,0.00,VWS V14.00,2013-01-21 06:35:00,
2013-01-21 00:39:00,44.1,42.2,30.11,South,188,0.0,0.0,93,0.00,,---,0.00,0.00,VWS V14.00,2013-01-21 06:39:00,
2013-01-21 00:43:00,44.0,41.8,30.11,South,188,0.0,0.0,92,0.00,,---,0.00,0.00,VWS V14.00,2013-01-21 06:43:00,
2013-01-21 00:47:00,43.9,42.0,30.11,South,188,0.0,0.0,93,0.00,,---,0.00,0.00,VWS V14.00,2013-01-21 06:47:00,
2013-01-21 00:51:00,43.8,41.9,30.11,South,188,0.0,0.0,93,0.00,,---,0.00,0.00,VWS V14.00,2013-01-21 06:51:00,
2013-01-21 00:55:00,43.7,41.8,30.11,South,188,0.0,0.0,93,0.00,,---,0.00,0.00,VWS V14.00,2013-01-21 06:55:00,
2013-01-21 00:59:00,43.6,41.7,30.11,South,188,0.0,0.0,93,0.00,,---,0.00,0.00,VWS V14.00,2013-01-21 06:59:00,
2013-01-21 01:00:00,43.5,41.6,30.11,South,188,0.0,0.0,93,0.00,,---,0.00,0.00,VWS V14.00,2013-01-21 07:00:00,
2013-01-21 01:03:00,43.4,41.5,30.11,South,188,0.0,0.0,93,0.00,,---,0.00,0.00,VWS V14.00,2013-01-21 07:03:00,
2013-01-21 01:07:00,43.4,41.5,30.11,South,188,0.0,0.0,93,0.00,,---,0.00,0.00,VWS V14.00,2013-01-21 07:07:00,
2013-01-21 01:15:00,43.3,41.4,30.11,South,188,0.0,0.0,93,0.00,,---,0.00,0.00,VWS V14.00,2013-01-21 07:15:00,
2013-01-21 01:19:00,43.4,41.5,30.11,South,188,0.0,0.0,93,0.00,,---,0.00,0.00,VWS V14.00,2013-01-21 07:19:00,
2013-01-21 01:23:00,43.5,41.9,30.11,South,188,0.0,0.0,94,0.00,,---,0.00,0.00,VWS V14.00,2013-01-21 07:23:00,
2013-01-21 01:27:00,43.5,41.6,30.11,South,188,0.0,0.0,93,0.00,,---,0.00,0.00,VWS V14.00,2013-01-21 07:27:00,
2013-01-21 01:31:00,43.4,41.5,30.12,South,188,0.0,0.0,93,0.00,,---,0.00,0.00,VWS V14.00,2013-01-21 07:31:00,
2013-01-21 01:35:00,43.4,41.8,30.12,South,188,0.0,0.0,94,0.00,,---,0.00,0.00,VWS V14.00,2013-01-21 07:35:00,
2013-01-21 01:39:00,43.2,41.3,30.12,South,188,0.0,0.0,93,0.00,,---,0.00,0.00,VWS V14.00,2013-01-21 07:39:00,
2013-01-21 01:43:00,43.2,41.3,30.12,South,188,0.0,0.0,93,0.00,,---,0.00,0.00,VWS V14.00,2013-01-21 07:43:00,
2013-01-21 01:47:00,43.3,41.7,30.12,South,188,0.0,0.0,94,0.00,,---,0.00,0.00,VWS V14.00,2013-01-21 07:47:00,
2013-01-21 01:51:00,43.2,41.6,30.12,South,188,0.0,0.0,94,0.00,,---,0.00,0.00,VWS V14.00,2013-01-21 07:51:00,
2013-01-21 01:56:00,43.0,41.1,30.12,South,188,0.0,0.0,93,0.00,,---,0.00,0.00,VWS V14.00,2013-01-21 07:56:00,
2013-01-21 02:00:00,42.8,40.9,30.12,South,188,0.0,0.0,93,0.00,,---,0.00,0.00,VWS V14.00,2013-01-21 08:00:00,
2013-01-21 02:04:00,42.5,40.6,30.12,South,188,0.0,0.0,93,0.00,,---,0.00,0.00,VWS V14.00,2013-01-21 08:04:00,
2013-01-21 02:08:00,42.4,40.5,30.12,South,188,0.0,0.0,93,0.00,,---,0.00,0.00,VWS V14.00,2013-01-21 08:08:00,
2013-01-21 02:12:00,42.4,40.8,30.12,South,188,0.0,0.0,94,0.00,,---,0.00,0.00,VWS V14.00,2013-01-21 08:12:00,
2013-01-21 02:16:00,42.3,40.7,30.12,South,188,0.0,0.0,94,0.00,,---,0.00,0.00,VWS V14.00,2013-01-21 08:16:00,
2013-01-21 02:20:00,42.3,40.7,30.12,South,188,0.0,0.0,94,0.00,,---,0.00,0.00,VWS V14.00,2013-01-21 08:20:00,
2013-01-21 02:24:00,42.3,40.7,30.12,South,188,0.0,0.0,94,0.00,,---,0.00,0.00,VWS V14.00,2013-01-21 08:24:00,
2013-01-21 02:28:00,42.4,40.8,30.12,South,188,0.0,0.0,94,0.00,,---,0.00,0.00,VWS V14.00,2013-01-21 08:28:00,
2013-01-21 02:30:00,42.4,40.8,30.11,South,188,0.0,0.0,94,0.00,,---,0.00,0.00,VWS V14.00,2013-01-21 08:30:00,
2013-01-21 02:32:00,42.4,40.8,30.11,South,188,0.0,0.0,94,0.00,,---,0.00,0.00,VWS V14.00,2013-01-21 08:32:00,
2013-01-21 02:36:00,42.3,40.7,30.11,South,188,0.0,0.0,94,0.00,,---,0.00,0.00,VWS V14.00,2013-01-21 08:36:00,
2013-01-21 02:40:00,42.1,40.5,30.11,South,188,0.0,0.0,94,0.00,,---,0.00,0.00,VWS V14.00,2013-01-21 08:40:00,
2013-01-21 02:44:00,42.2,40.6,30.12,South,188,0.0,0.0,94,0.00,,---,0.00,0.00,VWS V14.00,2013-01-21 08:44:00,
2013-01-21 02:48:00,42.4,40.8,30.12,South,188,0.0,0.0,94,0.00,,---,0.00,0.00,VWS V14.00,2013-01-21 08:48:00,
2013-01-21 02:52:00,42.1,40.5,30.12,South,188,0.0,0.0,94,0.00,,---,0.00,0.00,VWS V14.00,2013-01-21 08:52:00,
2013-01-21 02:56:00,42.0,40.4,30.12,South,188,0.0,0.0,94,0.00,,---,0.00,0.00,VWS V14.00,2013-01-21 08:56:00,
2013-01-21 03:00:00,42.8,41.5,30.12,South,188,0.0,0.0,95,0.00,,---,0.00,0.00,VWS V14.00,2013-01-21 09:00:00,
2013-01-21 03:04:00,42.6,41.3,30.12,South,188,0.0,0.0,95,0.00,,---,0.00,0.00,VWS V14.00,2013-01-21 09:04:00,
2013-01-21 03:08:00,43.0,41.7,30.12,South,188,0.0,0.0,95,0.00,,---,0.00,0.00,VWS V14.00,2013-01-21 09:08:00,
2013-01-21 03:12:00,43.5,42.2,30.12,South,188,0.0,0.0,95,0.00,,---,0.00,0.00,VWS V14.00,2013-01-21 09:12:00,
2013-01-21 03:16:00,43.6,42.3,30.12,South,188,0.0,0.0,95,0.00,,---,0.00,0.00,VWS V14.00,2013-01-21 09:16:00,
2013-01-21 03:20:00,43.7,42.4,30.12,South,188,0.0,0.0,95,0.00,,---,0.00,0.00,VWS V14.00,2013-01-21 09:20:00,
2013-01-21 03:24:00,43.4,42.1,30.12,South,188,0.0,0.0,95,0.00,,---,0.00,0.00,VWS V14.00,2013-01-21 09:24:00,
2013-01-21 03:28:00,43.4,42.1,30.12,South,188,0.0,0.0,95,0.00,,---,0.00,0.00,VWS V14.00,2013-01-21 09:28:00,
2013-01-21 03:32:00,43.3,42.0,30.12,South,188,0.0,0.0,95,0.00,,---,0.00,0.00,VWS V14.00,2013-01-21 09:32:00,
2013-01-21 03:36:00,43.1,41.8,30.12,South,188,0.0,0.0,95,0.00,,---,0.00,0.00,VWS V14.00,2013-01-21 09:36:00,
2013-01-21 03:40:00,42.9,41.3,30.12,South,188,0.0,0.0,94,0.00,,---,0.00,0.00,VWS V14.00,2013-01-21 09:40:00,
2013-01-21 03:44:00,42.1,40.5,30.12,South,188,0.0,0.0,94,0.00,,---,0.00,0.00,VWS V14.00,2013-01-21 09:44:00,
2013-01-21 03:48:00,41.8,40.2,30.12,South,188,0.0,0.0,94,0.00,,---,0.00,0.00,VWS V14.00,2013-01-21 09:48:00,
2013-01-21 03:52:00,42.7,41.4,30.12,South,188,0.0,0.0,95,0.00,,---,0.00,0.00,VWS V14.00,2013-01-21 09:52:00,
2013-01-21 03:56:00,43.3,42.0,30.12,South,188,0.0,0.0,95,0.00,,---,0.00,0.00,VWS V14.00,2013-01-21 09:56:00,
2013-01-21 04:01:00,43.2,41.9,30.12,South,188,0.0,0.0,95,0.00,,---,0.00,0.00,VWS V14.00,2013-01-21 10:01:00,
2013-01-21 04:05:00,43.2,41.9,30.12,South,188,0.0,0.0,95,0.00,,---,0.00,0.00,VWS V14.00,2013-01-21 10:05:00,
2013-01-21 04:09:00,43.2,41.9,30.12,South,188,0.0,0.0,95,0.00,,---,0.00,0.00,VWS V14.00,2013-01-21 10:09:00,
2013-01-21 04:13:00,42.8,41.5,30.12,South,188,0.0,0.0,95,0.00,,---,0.00,0.00,VWS V14.00,2013-01-21 10:13:00,
2013-01-21 04:17:00,42.9,41.6,30.11,South,188,0.0,0.0,95,0.00,,---,0.00,0.00,VWS V14.00,2013-01-21 10:17:00,
2013-01-21 04:25:00,42.4,41.1,30.11,South,188,0.0,0.0,95,0.00,,---,0.00,0.00,VWS V14.00,2013-01-21 10:25:00,
2013-01-21 04:29:00,42.0,40.7,30.11,South,188,0.0,0.0,95,0.00,,---,0.00,0.00,VWS V14.00,2013-01-21 10:29:00,
2013-01-21 04:33:00,42.1,40.8,30.12,South,188,0.0,0.0,95,0.00,,---,0.00,0.00,VWS V14.00,2013-01-21 10:33:00,
2013-01-21 04:37:00,42.2,40.9,30.12,NNW,338,5.0,5.0,95,0.00,,---,0.00,0.00,VWS V14.00,2013-01-21 10:37:00,
2013-01-21 04:41:00,43.2,41.9,30.12,NNW,329,0.0,9.0,95,0.00,,---,0.00,0.00,VWS V14.00,2013-01-21 10:41:00,
2013-01-21 04:45:00,43.9,42.6,30.13,NNW,329,2.0,9.0,95,0.00,,---,0.00,0.00,VWS V14.00,2013-01-21 10:45:00,
2013-01-21 04:49:00,44.1,42.8,30.13,NW,304,0.0,9.0,95,0.00,,---,0.00,0.00,VWS V14.00,2013-01-21 10:49:00,
2013-01-21 04:53:00,44.3,43.2,30.13,WNW,301,0.0,9.0,96,0.00,,---,0.00,0.00,VWS V14.00,2013-01-21 10:53:00,
2013-01-21 04:57:00,44.3,43.2,30.13,WNW,302,2.0,9.0,96,0.00,,---,0.00,0.00,VWS V14.00,2013-01-21 10:57:00,
2013-01-21 05:00:00,44.2,43.1,30.13,WNW,302,0.0,9.0,96,0.00,,---,0.00,0.00,VWS V14.00,2013-01-21 11:00:00,
2013-01-21 05:01:00,44.1,43.0,30.13,WNW,302,2.0,2.0,96,0.00,,---,0.00,0.00,VWS V14.00,2013-01-21 11:01:00,
2013-01-21 05:05:00,44.5,43.2,30.13,WNW,302,1.0,2.0,95,0.00,,---,0.00,0.00,VWS V14.00,2013-01-21 11:05:00,
2013-01-21 05:09:00,44.6,43.3,30.13,WNW,302,0.0,2.0,95,0.00,,---,0.00,0.00,VWS V14.00,2013-01-21 11:09:00,
2013-01-21 05:13:00,44.5,43.2,30.13,WNW,302,1.0,2.0,95,0.00,,---,0.00,0.00,VWS V14.00,2013-01-21 11:13:00,
2013-01-21 05:17:00,44.2,42.9,30.14,WNW,302,0.0,2.0,95,0.00,,---,0.00,0.00,VWS V14.00,2013-01-21 11:17:00,
2013-01-21 05:21:00,43.9,42.6,30.14,WNW,302,0.0,2.0,95,0.00,,---,0.00,0.00,VWS V14.00,2013-01-21 11:21:00,
2013-01-21 05:25:00,43.9,42.6,30.14,WNW,302,0.0,2.0,95,0.00,,---,0.00,0.00,VWS V14.00,2013-01-21 11:25:00,
2013-01-21 05:29:00,43.5,42.2,30.15,WNW,302,0.0,2.0,95,0.00,,---,0.00,0.00,VWS V14.00,2013-01-21 11:29:00,
2013-01-21 05:30:00,43.5,42.2,30.15,WNW,302,0.0,2.0,95,0.00,,---,0.00,0.00,VWS V14.00,2013-01-21 11:30:00,
2013-01-21 05:33:00,43.1,41.8,30.15,WNW,302,0.0,0.0,95,0.00,,---,0.00,0.00,VWS V14.00,2013-01-21 11:33:00,
2013-01-21 05:37:00,43.1,41.8,30.15,WNW,302,0.0,0.0,95,0.00,,---,0.00,0.00,VWS V14.00,2013-01-21 11:37:00,
2013-01-21 05:41:00,43.1,41.8,30.15,WNW,302,0.0,0.0,95,0.00,,---,0.00,0.00,VWS V14.00,2013-01-21 11:41:00,
2013-01-21 05:45:00,42.8,41.5,30.15,WNW,302,0.0,0.0,95,0.00,,---,0.00,0.00,VWS V14.00,2013-01-21 11:45:00,
2013-01-21 05:50:00,42.4,41.1,30.15,WNW,301,0.0,4.0,95,0.00,,---,0.00,0.00,VWS V14.00,2013-01-21 11:50:00,
2013-01-21 05:54:00,42.0,40.7,30.15,WNW,301,0.0,4.0,95,0.00,,---,0.00,0.00,VWS V14.00,2013-01-21 11:54:00,
2013-01-21 05:58:00,42.0,40.7,30.15,WNW,301,0.0,4.0,95,0.00,,---,0.00,0.00,VWS V14.00,2013-01-21 11:58:00,
2013-01-21 06:00:00,42.2,40.9,30.16,NW,312,1.0,4.0,95,0.00,,---,0.00,0.00,VWS V14.00,2013-01-21 12:00:00,
2013-01-21 06:02:00,42.3,41.0,30.16,NW,314,1.0,4.0,95,0.00,,---,0.00,0.00,VWS V14.00,2013-01-21 12:02:00,
2013-01-21 06:06:00,42.9,41.6,30.16,NW,315,2.0,4.0,95,0.00,,---,0.00,0.00,VWS V14.00,2013-01-21 12:06:00,
2013-01-21 06:10:00,43.5,42.2,30.16,North,350,5.0,5.0,95,0.00,,---,0.00,0.00,VWS V14.00,2013-01-21 12:10:00,
2013-01-21 06:14:00,44.0,42.9,30.16,NW,321,4.0,6.0,96,0.00,,---,0.00,0.00,VWS V14.00,2013-01-21 12:14:00,
2013-01-21 06:18:00,44.2,43.1,30.17,North,355,4.0,6.0,96,0.00,,---,0.00,0.00,VWS V14.00,2013-01-21 12:18:00,
2013-01-21 06:22:00,44.4,43.3,30.17,North,5,5.0,6.0,96,0.00,,---,0.00,0.00,VWS V14.00,2013-01-21 12:22:00,
2013-01-21 06:26:00,44.4,43.1,30.17,NNW,335,6.0,6.0,95,0.00,,---,0.00,0.00,VWS V14.00,2013-01-21 12:26:00,
2013-01-21 06:30:00,44.3,43.0,30.18,NNE,21,2.0,6.0,95,0.00,,---,0.00,0.00,VWS V14.00,2013-01-21 12:30:00,
2013-01-21 06:34:00,44.2,42.6,30.18,North,355,6.0,6.0,94,0.00,,---,0.00,0.00,VWS V14.00,2013-01-21 12:34:00,
2013-01-21 06:38:00,44.2,42.6,30.18,NNW,330,5.0,6.0,94,0.00,,---,0.00,0.00,VWS V14.00,2013-01-21 12:38:00,
2013-01-21 06:42:00,44.1,42.2,30.18,North,355,4.0,7.0,93,0.00,,---,0.00,0.00,VWS V14.00,2013-01-21 12:42:00,
2013-01-21 06:46:00,44.1,42.2,30.18,North,351,5.0,7.0,93,0.00,,---,0.00,0.00,VWS V14.00,2013-01-21 12:46:00,
2013-01-21 06:50:00,44.0,41.8,30.18,North,350,5.0,7.0,92,0.00,,---,0.00,0.00,VWS V14.00,2013-01-21 12:50:00,
2013-01-21 06:54:00,44.0,41.5,30.18,North,5,5.0,10.0,91,0.00,,---,0.00,0.00,VWS V14.00,2013-01-21 12:54:00,
2013-01-21 06:58:00,43.9,41.5,30.18,North,5,4.0,10.0,91,0.00,,---,0.00,0.00,VWS V14.00,2013-01-21 12:58:00,
2013-01-21 07:00:00,43.8,41.3,30.18,North,11,3.0,10.0,91,0.00,,---,0.00,0.00,VWS V14.00,2013-01-21 13:00:00,
2013-01-21 07:02:00,43.7,41.0,30.18,NNE,13,3.0,3.0,90,0.00,,---,0.00,0.00,VWS V14.00,2013-01-21 13:02:00,
2013-01-21 07:06:00,43.6,40.9,30.18,North,355,4.0,5.0,90,0.00,,---,0.00,0.00,VWS V14.00,2013-01-21 13:06:00,
2013-01-21 07:10:00,43.4,40.7,30.18,NNW,346,6.0,6.0,90,0.00,,---,0.00,5.00,VWS V14.00,2013-01-21 13:10:00,
2013-01-21 07:14:00,43.3,40.6,30.19,North,351,7.0,7.0,90,0.00,,---,0.00,12.00,VWS V14.00,2013-01-21 13:14:00,
2013-01-21 07:18:00,43.3,40.6,30.19,North,351,3.0,7.0,90,0.00,,---,0.00,18.00,VWS V14.00,2013-01-21 13:18:00,
2013-01-21 07:22:00,43.2,40.2,30.19,NNW,336,6.0,7.0,89,0.00,,---,0.00,23.00,VWS V14.00,2013-01-21 13:22:00,
2013-01-21 07:26:00,43.2,40.2,30.19,NW,322,8.0,8.0,89,0.00,,---,0.00,25.00,VWS V14.00,2013-01-21 13:26:00,
2013-01-21 07:30:00,43.2,39.9,30.19,NNW,335,5.0,8.0,88,0.00,,---,0.00,21.00,VWS V14.00,2013-01-21 13:30:00,
2013-01-21 07:34:00,43.2,39.9,30.19,North,5,10.0,10.0,88,0.00,,---,0.00,42.00,VWS V14.00,2013-01-21 13:34:00,
2013-01-21 07:38:00,43.1,39.5,30.19,North,5,5.0,10.0,87,0.00,,---,0.00,47.00,VWS V14.00,2013-01-21 13:38:00,
2013-01-21 07:42:00,43.2,39.6,30.19,NNE,13,4.0,10.0,87,0.00,,---,0.00,56.00,VWS V14.00,2013-01-21 13:42:00,
2013-01-21 07:46:00,43.4,39.5,30.20,North,360,3.0,10.0,86,0.00,,---,0.00,77.00,VWS V14.00,2013-01-21 13:46:00,
2013-01-21 07:50:00,43.5,39.3,30.20,North,355,4.0,10.0,85,0.00,,---,0.00,100.00,VWS V14.00,2013-01-21 13:50:00,
2013-01-21 07:54:00,43.6,39.1,30.20,NW,315,5.0,10.0,84,0.00,,---,0.00,113.00,VWS V14.00,2013-01-21 13:54:00,
2013-01-21 07:58:00,43.7,39.2,30.20,NNW,327,7.0,10.0,84,0.00,,---,0.00,123.00,VWS V14.00,2013-01-21 13:58:00,
2013-01-21 08:00:00,43.7,38.9,30.20,NNW,340,8.0,10.0,83,0.00,,---,0.00,128.00,VWS V14.00,2013-01-21 14:00:00,
2013-01-21 08:02:00,43.7,38.9,30.20,North,10,6.0,9.0,83,0.00,,---,0.00,134.00,VWS V14.00,2013-01-21 14:02:00,
2013-01-21 08:06:00,43.8,39.0,30.20,North,10,5.0,9.0,83,0.00,,---,0.00,144.00,VWS V14.00,2013-01-21 14:06:00,
2013-01-21 08:10:00,44.0,38.9,30.20,NNE,22,8.0,9.0,82,0.00,,---,0.00,155.00,VWS V14.00,2013-01-21 14:10:00,
2013-01-21 08:15:00,44.1,39.3,30.20,NNE,24,6.0,9.0,83,0.00,,---,0.00,163.00,VWS V14.00,2013-01-21 14:15:00,
2013-01-21 08:19:00,44.4,39.3,30.20,NNW,346,9.0,9.0,82,0.00,,---,0.00,179.00,VWS V14.00,2013-01-21 14:19:00,
2013-01-21 08:23:00,44.4,39.3,30.20,NNE,15,4.0,9.0,82,0.00,,---,0.00,183.00,VWS V14.00,2013-01-21 14:23:00,
2013-01-21 08:27:00,44.6,39.5,30.20,NNW,333,4.0,9.0,82,0.00,,---,0.00,195.00,VWS V14.00,2013-01-21 14:27:00,
2013-01-21 08:30:00,44.8,39.3,30.21,North,355,4.0,9.0,81,0.00,,---,0.00,206.00,VWS V14.00,2013-01-21 14:30:00,
2013-01-21 08:31:00,44.9,39.4,30.21,North,5,4.0,4.0,81,0.00,,---,0.00,206.00,VWS V14.00,2013-01-21 14:31:00,
2013-01-21 08:35:00,45.2,40.0,30.21,NNW,342,5.0,8.0,82,0.00,,---,0.00,216.00,VWS V14.00,2013-01-21 14:35:00,
2013-01-21 08:39:00,45.5,39.7,30.21,NNE,23,6.0,8.0,80,0.00,,---,0.00,230.00,VWS V14.00,2013-01-21 14:39:00,
2013-01-21 08:43:00,45.6,39.5,30.21,NNE,20,5.0,8.0,79,0.00,,---,0.00,241.00,VWS V14.00,2013-01-21 14:43:00,
2013-01-21 08:47:00,45.8,39.7,30.22,NNE,17,10.0,10.0,79,0.00,,---,0.00,258.00,VWS V14.00,2013-01-21 14:47:00,
2013-01-21 08:51:00,45.6,39.5,30.22,North,5,3.0,10.0,79,0.00,,---,0.00,272.00,VWS V14.00,2013-01-21 14:51:00,
2013-01-21 08:55:00,46.0,39.5,30.22,North,360,7.0,10.0,78,0.00,,---,0.00,285.00,VWS V14.00,2013-01-21 14:55:00,
2013-01-21 08:59:00,46.3,39.8,30.22,North,355,10.0,10.0,78,0.00,,---,0.00,297.00,VWS V14.00,2013-01-21 14:59:00,
2013-01-21 09:00:00,46.2,39.1,30.22,North,5,6.0,10.0,76,0.00,,---,0.00,299.00,VWS V14.00,2013-01-21 15:00:00,
2013-01-21 09:03:00,46.3,39.5,30.22,North,360,3.0,7.0,77,0.00,,---,0.00,308.00,VWS V14.00,2013-01-21 15:03:00,
2013-01-21 09:07:00,46.4,39.3,30.22,NNE,13,6.0,10.0,76,0.00,,---,0.00,316.00,VWS V14.00,2013-01-21 15:07:00,
2013-01-21 09:11:00,46.8,40.0,30.22,North,355,3.0,10.0,77,0.00,,---,0.00,330.00,VWS V14.00,2013-01-21 15:11:00,
2013-01-21 09:15:00,47.3,39.8,30.23,North,9,5.0,10.0,75,0.00,,---,0.00,341.00,VWS V14.00,2013-01-21 15:15:00,
2013-01-21 09:19:00,47.5,40.0,30.23,NNE,17,2.0,10.0,75,0.00,,---,0.00,346.00,VWS V14.00,2013-01-21 15:19:00,
2013-01-21 09:23:00,47.9,40.4,30.23,North,360,6.0,10.0,75,0.00,,---,0.00,366.00,VWS V14.00,2013-01-21 15:23:00,
2013-01-21 09:27:00,48.0,40.1,30.23,NNE,29,2.0,10.0,74,0.00,,---,0.00,374.00,VWS V14.00,2013-01-21 15:27:00,
2013-01-21 09:30:00,48.3,40.8,30.23,NNE,24,1.0,10.0,75,0.00,,---,0.00,383.00,VWS V14.00,2013-01-21 15:30:00,
2013-01-21 09:31:00,48.5,41.0,30.23,NNE,16,5.0,6.0,75,0.00,,---,0.00,385.00,VWS V14.00,2013-01-21 15:31:00,
2013-01-21 09:35:00,48.5,40.6,30.23,North,355,4.0,9.0,74,0.00,,---,0.00,394.00,VWS V14.00,2013-01-21 15:35:00,
2013-01-21 09:39:00,48.6,40.7,30.23,NNE,15,3.0,9.0,74,0.00,,---,0.00,401.00,VWS V14.00,2013-01-21 15:39:00,
2013-01-21 09:43:00,49.0,40.7,30.23,NNE,19,5.0,9.0,73,0.00,,---,0.00,410.00,VWS V14.00,2013-01-21 15:43:00,
2013-01-21 09:47:00,49.8,41.9,30.24,North,9,4.0,9.0,74,0.00,,---,0.00,420.00,VWS V14.00,2013-01-21 15:47:00,
2013-01-21 09:51:00,49.9,41.2,30.24,NNE,18,5.0,9.0,72,0.00,,---,0.00,427.00,VWS V14.00,2013-01-21 15:51:00,
2013-01-21 09:55:00,49.7,41.4,30.24,NE,36,2.0,9.0,73,0.00,,---,0.00,438.00,VWS V14.00,2013-01-21 15:55:00,
2013-01-21 09:59:00,50.5,41.8,30.24,NNW,340,8.0,9.0,72,0.00,,---,0.00,450.00,VWS V14.00,2013-01-21 15:59:00,
2013-01-21 10:00:00,50.4,41.7,30.24,North,351,5.0,9.0,72,0.00,,---,0.00,448.00,VWS V14.00,2013-01-21 16:00:00,
2013-01-21 10:03:00,50.4,41.7,30.24,North,360,6.0,10.0,72,0.00,,---,0.00,457.00,VWS V14.00,2013-01-21 16:03:00,
2013-01-21 10:07:00,50.9,42.2,30.24,North,355,9.0,10.0,72,0.00,,---,0.00,462.00,VWS V14.00,2013-01-21 16:07:00,
2013-01-21 10:11:00,51.1,42.0,30.24,NE,44,4.0,10.0,71,0.00,,---,0.00,471.00,VWS V14.00,2013-01-21 16:11:00,
2013-01-21 10:15:00,51.1,42.4,30.25,NNE,24,3.0,10.0,72,0.00,,---,0.00,480.00,VWS V14.00,2013-01-21 16:15:00,
2013-01-21 10:19:00,51.5,42.8,30.25,NNE,21,4.0,10.0,72,0.00,,---,0.00,485.00,VWS V14.00,2013-01-21 16:19:00,
2013-01-21 10:23:00,52.1,43.4,30.25,NNE,18,2.0,10.0,72,0.00,,---,0.00,494.00,VWS V14.00,2013-01-21 16:23:00,
2013-01-21 10:27:00,52.5,43.4,30.25,NNE,33,6.0,10.0,71,0.00,,---,0.00,503.00,VWS V14.00,2013-01-21 16:27:00,
2013-01-21 10:30:00,52.6,43.1,30.25,North,360,5.0,10.0,70,0.00,,---,0.00,506.00,VWS V14.00,2013-01-21 16:30:00,
2013-01-21 10:31:00,52.8,43.7,30.25,NE,40,5.0,7.0,71,0.00,,---,0.00,512.00,VWS V14.00,2013-01-21 16:31:00,
2013-01-21 10:36:00,53.1,43.6,30.25,NNE,14,10.0,10.0,70,0.00,,---,0.00,517.00,VWS V14.00,2013-01-21 16:36:00,
2013-01-21 10:40:00,53.1,43.6,30.25,NNE,17,6.0,10.0,70,0.00,,---,0.00,520.00,VWS V14.00,2013-01-21 16:40:00,
2013-01-21 10:44:00,53.7,43.8,30.25,North,9,6.0,10.0,69,0.00,,---,0.00,529.00,VWS V14.00,2013-01-21 16:44:00,
2013-01-21 10:48:00,53.7,43.8,30.24,North,10,6.0,11.0,69,0.00,,---,0.00,534.00,VWS V14.00,2013-01-21 16:48:00,
2013-01-21 10:52:00,53.6,44.1,30.24,NNE,13,5.0,11.0,70,0.00,,---,0.00,538.00,VWS V14.00,2013-01-21 16:52:00,
2013-01-21 10:56:00,54.4,45.2,30.24,NNW,339,6.0,11.0,71,0.00,,---,0.00,545.00,VWS V14.00,2013-01-21 16:56:00,
2013-01-21 11:00:00,54.1,44.2,30.24,North,10,4.0,11.0,69,0.00,,---,0.00,550.00,VWS V14.00,2013-01-21 17:00:00,
2013-01-21 11:04:00,54.6,44.7,30.24,NNE,19,5.0,6.0,69,0.00,,---,0.00,555.00,VWS V14.00,2013-01-21 17:04:00,
2013-01-21 11:08:00,54.6,44.3,30.24,North,360,5.0,11.0,68,0.00,,---,0.00,561.00,VWS V14.00,2013-01-21 17:08:00,
2013-01-21 11:12:00,55.0,44.7,30.24,North,11,6.0,11.0,68,0.00,,---,0.00,564.00,VWS V14.00,2013-01-21 17:12:00,
2013-01-21 11:16:00,55.4,44.6,30.24,NNE,19,3.0,11.0,67,0.00,,---,0.00,570.00,VWS V14.00,2013-01-21 17:16:00,
2013-01-21 11:20:00,55.7,44.9,30.24,North,355,4.0,11.0,67,0.00,,---,0.00,571.00,VWS V14.00,2013-01-21 17:20:00,
2013-01-21 11:24:00,55.7,44.9,30.24,North,355,5.0,11.0,67,0.00,,---,0.00,577.00,VWS V14.00,2013-01-21 17:24:00,
2013-01-21 11:28:00,55.6,44.4,30.24,NNE,27,4.0,11.0,66,0.00,,---,0.00,578.00,VWS V14.00,2013-01-21 17:28:00,
2013-01-21 11:30:00,55.7,44.5,30.24,NNW,346,8.0,11.0,66,0.00,,---,0.00,578.00,VWS V14.00,2013-01-21 17:30:00,
2013-01-21 11:32:00,55.8,45.0,30.24,NE,38,4.0,8.0,67,0.00,,---,0.00,582.00,VWS V14.00,2013-01-21 17:32:00,
2013-01-21 11:36:00,56.8,46.4,30.24,NNE,13,8.0,8.0,68,0.00,,---,0.00,585.00,VWS V14.00,2013-01-21 17:36:00,
2013-01-21 11:40:00,56.8,44.8,30.24,North,360,5.0,8.0,64,0.00,,---,0.00,589.00,VWS V14.00,2013-01-21 17:40:00,
2013-01-21 11:44:00,56.6,45.0,30.24,NNE,31,3.0,8.0,65,0.00,,---,0.00,589.00,VWS V14.00,2013-01-21 17:44:00,
2013-01-21 11:48:00,56.6,44.6,30.24,NNE,28,2.0,8.0,64,0.00,,---,0.00,591.00,VWS V14.00,2013-01-21 17:48:00,
2013-01-21 11:52:00,56.9,44.5,30.24,NNE,32,3.0,8.0,63,0.00,,---,0.00,594.00,VWS V14.00,2013-01-21 17:52:00,
2013-01-21 11:56:00,57.1,45.5,30.24,NNE,26,4.0,8.0,65,0.00,,---,0.00,596.00,VWS V14.00,2013-01-21 17:56:00,
2013-01-21 12:00:00,57.9,45.4,30.23,NNE,24,1.0,8.0,63,0.00,,---,0.00,594.00,VWS V14.00,2013-01-21 18:00:00,
2013-01-21 12:04:00,57.6,44.7,30.23,NE,38,2.0,5.0,62,0.00,,---,0.00,598.00,VWS V14.00,2013-01-21 18:04:00,
2013-01-21 12:08:00,57.5,45.4,30.23,NNE,32,3.0,6.0,64,0.00,,---,0.00,599.00,VWS V14.00,2013-01-21 18:08:00,
2013-01-21 12:12:00,57.3,44.8,30.23,NNE,22,3.0,8.0,63,0.00,,---,0.00,598.00,VWS V14.00,2013-01-21 18:12:00,
2013-01-21 12:16:00,57.3,44.4,30.22,ENE,62,3.0,8.0,62,0.00,,---,0.00,598.00,VWS V14.00,2013-01-21 18:16:00,
2013-01-21 12:20:00,56.9,44.9,30.22,ENE,59,3.0,8.0,64,0.00,,---,0.00,598.00,VWS V14.00,2013-01-21 18:20:00,
2013-01-21 12:24:00,57.7,45.2,30.22,NNE,25,2.0,8.0,63,0.00,,---,0.00,598.00,VWS V14.00,2013-01-21 18:24:00,
2013-01-21 12:28:00,58.3,45.3,30.22,ENE,67,5.0,8.0,62,0.00,,---,0.00,596.00,VWS V14.00,2013-01-21 18:28:00,
2013-01-21 12:30:00,58.0,45.1,30.21,ENE,61,3.0,8.0,62,0.00,,---,0.00,594.00,VWS V14.00,2013-01-21 18:30:00,
2013-01-21 12:32:00,58.0,45.1,30.21,ENE,59,4.0,5.0,62,0.00,,---,0.00,596.00,VWS V14.00,2013-01-21 18:32:00,
2013-01-21 12:36:00,58.3,46.2,30.21,NE,46,4.0,5.0,64,0.00,,---,0.00,596.00,VWS V14.00,2013-01-21 18:36:00,
2013-01-21 12:40:00,58.8,45.0,30.21,NE,47,3.0,5.0,60,0.00,,---,0.00,594.00,VWS V14.00,2013-01-21 18:40:00,
2013-01-21 12:44:00,58.6,44.3,30.21,NNE,23,3.0,5.0,59,0.00,,---,0.00,591.00,VWS V14.00,2013-01-21 18:44:00,
2013-01-21 12:48:00,58.5,44.7,30.21,NNE,32,3.0,5.0,60,0.00,,---,0.00,589.00,VWS V14.00,2013-01-21 18:48:00,
2013-01-21 12:53:00,59.0,44.7,30.21,NE,38,2.0,6.0,59,0.00,,---,0.00,589.00,VWS V14.00,2013-01-21 18:53:00,
2013-01-21 12:57:00,58.7,44.4,30.21,NNE,25,3.0,6.0,59,0.00,,---,0.00,585.00,VWS V14.00,2013-01-21 18:57:00,
2013-01-21 13:00:00,59.6,44.8,30.20,North,9,4.0,7.0,58,0.00,,---,0.00,584.00,VWS V14.00,2013-01-21 19:00:00,
2013-01-21 13:01:00,59.5,44.3,30.20,North,5,3.0,4.0,57,0.00,,---,0.00,584.00,VWS V14.00,2013-01-21 19:01:00,
2013-01-21 13:05:00,59.9,44.7,30.20,North,360,2.0,5.0,57,0.00,,---,0.00,584.00,VWS V14.00,2013-01-21 19:05:00,
2013-01-21 13:09:00,59.6,44.4,30.20,NE,36,1.0,6.0,57,0.00,,---,0.00,580.00,VWS V14.00,2013-01-21 19:09:00,
2013-01-21 13:13:00,59.8,44.5,30.20,NNE,13,2.0,6.0,57,0.00,,---,0.00,571.00,VWS V14.00,2013-01-21 19:13:00,
2013-01-21 13:17:00,60.0,45.2,30.20,NE,36,6.0,7.0,58,0.00,,---,0.00,568.00,VWS V14.00,2013-01-21 19:17:00,
2013-01-21 13:21:00,59.9,44.2,30.20,NE,36,4.0,7.0,56,0.00,,---,0.00,564.00,VWS V14.00,2013-01-21 19:21:00,
2013-01-21 13:25:00,59.8,44.1,30.20,NNE,18,5.0,7.0,56,0.00,,---,0.00,555.00,VWS V14.00,2013-01-21 19:25:00,
2013-01-21 13:29:00,60.9,45.1,30.20,NNE,21,3.0,7.0,56,0.00,,---,0.00,552.00,VWS V14.00,2013-01-21 19:29:00,
2013-01-21 13:30:00,61.0,44.7,30.20,NNE,31,4.0,7.0,55,0.00,,---,0.00,550.00,VWS V14.00,2013-01-21 19:30:00,
2013-01-21 13:33:00,59.7,44.0,30.20,NE,53,2.0,4.0,56,0.00,,---,0.00,547.00,VWS V14.00,2013-01-21 19:33:00,
2013-01-21 13:37:00,59.8,44.5,30.20,NNE,23,4.0,7.0,57,0.00,,---,0.00,540.00,VWS V14.00,2013-01-21 19:37:00,
2013-01-21 13:41:00,60.0,44.3,30.20,NE,42,4.0,7.0,56,0.00,,---,0.00,533.00,VWS V14.00,2013-01-21 19:41:00,
2013-01-21 13:45:00,60.3,44.1,30.20,NNE,20,3.0,7.0,55,0.00,,---,0.00,526.00,VWS V14.00,2013-01-21 19:45:00,
2013-01-21 13:49:00,59.8,43.6,30.20,NE,43,2.0,7.0,55,0.00,,---,0.00,529.00,VWS V14.00,2013-01-21 19:49:00,
2013-01-21 13:53:00,59.6,44.4,30.20,NE,42,3.0,7.0,57,0.00,,---,0.00,524.00,VWS V14.00,2013-01-21 19:53:00,
2013-01-21 13:57:00,60.1,44.4,30.20,NNE,24,5.0,7.0,56,0.00,,---,0.00,529.00,VWS V14.00,2013-01-21 19:57:00,
2013-01-21 14:00:00,60.4,44.2,30.20,NNE,13,5.0,7.0,55,0.00,,---,0.00,438.00,VWS V14.00,2013-01-21 20:00:00,
2013-01-21 14:01:00,60.2,44.0,30.20,NNE,27,6.0,6.0,55,0.00,,---,0.00,464.00,VWS V14.00,2013-01-21 20:01:00,
2013-01-21 14:05:00,59.9,43.7,30.20,NE,43,4.0,6.0,55,0.00,,---,0.00,497.00,VWS V14.00,2013-01-21 20:05:00,
2013-01-21 14:09:00,59.6,43.4,30.20,NE,45,2.0,6.0,55,0.00,,---,0.00,496.00,VWS V14.00,2013-01-21 20:09:00,
2013-01-21 14:13:00,59.8,43.6,30.20,NE,35,3.0,7.0,55,0.00,,---,0.00,487.00,VWS V14.00,2013-01-21 20:13:00,
2013-01-21 14:17:00,60.5,43.8,30.20,NE,43,2.0,7.0,54,0.00,,---,0.00,475.00,VWS V14.00,2013-01-21 20:17:00,
2013-01-21 14:21:00,59.5,44.3,30.20,NNE,14,4.0,7.0,57,0.00,,---,0.00,468.00,VWS V14.00,2013-01-21 20:21:00,
2013-01-21 14:25:00,60.0,43.8,30.20,NNE,15,4.0,7.0,55,0.00,,---,0.00,461.00,VWS V14.00,2013-01-21 20:25:00,
2013-01-21 14:29:00,60.1,42.9,30.20,NNE,15,3.0,7.0,53,0.00,,---,0.00,454.00,VWS V14.00,2013-01-21 20:29:00,
2013-01-21 14:30:00,60.2,43.0,30.20,NE,46,2.0,7.0,53,0.00,,---,0.00,445.00,VWS V14.00,2013-01-21 20:30:00,
2013-01-21 14:33:00,60.1,43.9,30.20,NNE,13,3.0,4.0,55,0.00,,---,0.00,434.00,VWS V14.00,2013-01-21 20:33:00,
2013-01-21 14:37:00,60.8,43.6,30.20,North,355,5.0,5.0,53,0.00,,---,0.00,431.00,VWS V14.00,2013-01-21 20:37:00,
2013-01-21 14:42:00,60.5,42.8,30.20,NNE,28,4.0,6.0,52,0.00,,---,0.00,406.00,VWS V14.00,2013-01-21 20:42:00,
2013-01-21 14:46:00,60.2,42.5,30.20,North,9,2.0,6.0,52,0.00,,---,0.00,411.00,VWS V14.00,2013-01-21 20:46:00,
2013-01-21 14:50:00,60.4,42.7,30.20,NNE,18,2.0,6.0,52,0.00,,---,0.00,401.00,VWS V14.00,2013-01-21 20:50:00,
2013-01-21 14:54:00,59.7,42.6,30.20,ENE,57,2.0,6.0,53,0.00,,---,0.00,367.00,VWS V14.00,2013-01-21 20:54:00,
2013-01-21 14:58:00,59.3,43.2,30.20,ENE,61,4.0,6.0,55,0.00,,---,0.00,383.00,VWS V14.00,2013-01-21 20:58:00,
2013-01-21 15:00:00,59.3,43.2,30.20,ENE,63,4.0,6.0,55,0.00,,---,0.00,373.00,VWS V14.00,2013-01-21 21:00:00,
2013-01-21 15:02:00,59.5,43.8,30.20,NNE,28,2.0,4.0,56,0.00,,---,0.00,353.00,VWS V14.00,2013-01-21 21:02:00,
2013-01-21 15:06:00,59.5,43.3,30.20,ENE,69,3.0,5.0,55,0.00,,---,0.00,279.00,VWS V14.00,2013-01-21 21:06:00,
2013-01-21 15:10:00,58.9,43.7,30.20,ENE,75,4.0,5.0,57,0.00,,---,0.00,355.00,VWS V14.00,2013-01-21 21:10:00,
2013-01-21 15:14:00,58.1,44.7,30.20,ENE,65,1.0,5.0,61,0.00,,---,0.00,315.00,VWS V14.00,2013-01-21 21:14:00,
2013-01-21 15:18:00,58.2,44.8,30.20,ENE,65,1.0,5.0,61,0.00,,---,0.00,315.00,VWS V14.00,2013-01-21 21:18:00,
2013-01-21 15:22:00,58.0,45.1,30.20,ENE,62,0.0,5.0,62,0.00,,---,0.00,311.00,VWS V14.00,2013-01-21 21:22:00,
2013-01-21 15:26:00,58.2,45.7,30.20,ENE,62,2.0,5.0,63,0.00,,---,0.00,301.00,VWS V14.00,2013-01-21 21:26:00,
2013-01-21 15:30:00,57.8,45.3,30.20,ENE,62,0.0,5.0,63,0.00,,---,0.00,288.00,VWS V14.00,2013-01-21 21:30:00,
2013-01-21 15:34:00,58.2,43.5,30.20,ENE,65,3.0,3.0,58,0.00,,---,0.00,279.00,VWS V14.00,2013-01-21 21:34:00,
2013-01-21 15:38:00,57.6,43.8,30.20,ENE,59,0.0,3.0,60,0.00,,---,0.00,265.00,VWS V14.00,2013-01-21 21:38:00,
2013-01-21 15:42:00,57.1,44.2,30.20,ENE,74,3.0,4.0,62,0.00,,---,0.00,255.00,VWS V14.00,2013-01-21 21:42:00,
2013-01-21 15:46:00,56.9,44.5,30.20,ENE,73,0.0,4.0,63,0.00,,---,0.00,244.00,VWS V14.00,2013-01-21 21:46:00,
2013-01-21 15:50:00,57.2,44.3,30.20,ENE,73,1.0,4.0,62,0.00,,---,0.00,236.00,VWS V14.00,2013-01-21 21:50:00,
2013-01-21 15:54:00,56.7,44.7,30.20,ENE,73,0.0,4.0,64,0.00,,---,0.00,223.00,VWS V14.00,2013-01-21 21:54:00,
2013-01-21 15:58:00,57.0,45.0,30.20,ENE,73,1.0,4.0,64,0.00,,---,0.00,214.00,VWS V14.00,2013-01-21 21:58:00,
2013-01-21 16:00:00,57.2,45.2,30.20,ENE,72,0.0,4.0,64,0.00,,---,0.00,204.00,VWS V14.00,2013-01-21 22:00:00,
2013-01-21 16:02:00,57.5,45.0,30.20,ENE,72,0.0,0.0,63,0.00,,---,0.00,197.00,VWS V14.00,2013-01-21 22:02:00,
2013-01-21 16:06:00,57.8,43.1,30.20,ENE,65,0.0,2.0,58,0.00,,---,0.00,167.00,VWS V14.00,2013-01-21 22:06:00,
2013-01-21 16:10:00,57.8,43.6,30.20,ENE,65,0.0,2.0,59,0.00,,---,0.00,146.00,VWS V14.00,2013-01-21 22:10:00,
2013-01-21 16:14:00,57.5,44.2,30.20,SW,235,0.0,2.0,61,0.00,,---,0.00,83.00,VWS V14.00,2013-01-21 22:14:00,
2013-01-21 16:18:00,57.1,42.5,30.20,SW,235,0.0,2.0,58,0.00,,---,0.00,91.00,VWS V14.00,2013-01-21 22:18:00,
2013-01-21 16:22:00,57.1,43.4,30.20,SW,235,0.0,2.0,60,0.00,,---,0.00,116.00,VWS V14.00,2013-01-21 22:22:00,
2013-01-21 16:26:00,57.0,43.7,30.20,SW,235,0.0,2.0,61,0.00,,---,0.00,83.00,VWS V14.00,2013-01-21 22:26:00,
2013-01-21 16:30:00,57.2,43.9,30.20,SW,235,0.0,2.0,61,0.00,,---,0.00,79.00,VWS V14.00,2013-01-21 22:30:00,
2013-01-21 16:34:00,56.9,43.2,30.20,NW,319,0.0,0.0,60,0.00,,---,0.00,81.00,VWS V14.00,2013-01-21 22:34:00,
2013-01-21 16:38:00,56.5,43.2,30.20,NW,319,0.0,0.0,61,0.00,,---,0.00,72.00,VWS V14.00,2013-01-21 22:38:00,
2013-01-21 16:42:00,56.4,43.1,30.20,NW,319,0.0,0.0,61,0.00,,---,0.00,49.00,VWS V14.00,2013-01-21 22:42:00,
2013-01-21 16:46:00,56.3,42.6,30.20,NW,319,0.0,0.0,60,0.00,,---,0.00,28.00,VWS V14.00,2013-01-21 22:46:00,
2013-01-21 16:50:00,56.2,42.5,30.20,NW,319,0.0,0.0,60,0.00,,---,0.00,28.00,VWS V14.00,2013-01-21 22:50:00,
2013-01-21 16:54:00,56.0,42.8,30.20,NW,319,0.0,0.0,61,0.00,,---,0.00,21.00,VWS V14.00,2013-01-21 22:54:00,
2013-01-21 16:59:00,55.6,42.8,30.20,NW,319,0.0,0.0,62,0.00,,---,0.00,19.00,VWS V14.00,2013-01-21 22:59:00,
2013-01-21 17:00:00,55.4,43.0,30.19,NW,319,0.0,0.0,63,0.00,,---,0.00,18.00,VWS V14.00,2013-01-21 23:00:00,
2013-01-21 17:03:00,55.1,42.8,30.19,NW,319,0.0,0.0,63,0.00,,---,0.00,16.00,VWS V14.00,2013-01-21 23:03:00,
2013-01-21 17:07:00,54.8,42.9,30.19,NW,319,0.0,0.0,64,0.00,,---,0.00,14.00,VWS V14.00,2013-01-21 23:07:00,
2013-01-21 17:11:00,54.2,43.1,30.19,NW,319,0.0,0.0,66,0.00,,---,0.00,12.00,VWS V14.00,2013-01-21 23:11:00,
2013-01-21 17:15:00,53.9,42.8,30.19,NW,319,0.0,0.0,66,0.00,,---,0.00,9.00,VWS V14.00,2013-01-21 23:15:00,
2013-01-21 17:19:00,53.5,43.2,30.19,NW,319,0.0,0.0,68,0.00,,---,0.00,7.00,VWS V14.00,2013-01-21 23:19:00,
2013-01-21 17:23:00,52.8,43.3,30.19,NW,319,0.0,0.0,70,0.00,,---,0.00,5.00,VWS V14.00,2013-01-21 23:23:00,
2013-01-21 17:27:00,52.2,43.5,30.19,NW,319,0.0,0.0,72,0.00,,---,0.00,0.00,VWS V14.00,2013-01-21 23:27:00,
2013-01-21 17:30:00,51.7,43.7,30.20,NW,319,0.0,0.0,74,0.00,,---,0.00,0.00,VWS V14.00,2013-01-21 23:30:00,
2013-01-21 17:31:00,51.6,44.0,30.20,NW,319,0.0,0.0,75,0.00,,---,0.00,0.00,VWS V14.00,2013-01-21 23:31:00,
2013-01-21 17:35:00,51.2,43.6,30.20,NW,319,0.0,0.0,75,0.00,,---,0.00,0.00,VWS V14.00,2013-01-21 23:35:00,
2013-01-21 17:39:00,51.0,43.7,30.20,NW,319,0.0,0.0,76,0.00,,---,0.00,0.00,VWS V14.00,2013-01-21 23:39:00,
2013-01-21 17:43:00,50.8,43.5,30.20,NW,319,0.0,0.0,76,0.00,,---,0.00,0.00,VWS V14.00,2013-01-21 23:43:00,
2013-01-21 17:47:00,50.6,43.3,30.20,NW,319,0.0,0.0,76,0.00,,---,0.00,0.00,VWS V14.00,2013-01-21 23:47:00,
2013-01-21 17:51:00,50.5,43.6,30.20,NW,319,0.0,0.0,77,0.00,,---,0.00,0.00,VWS V14.00,2013-01-21 23:51:00,
2013-01-21 17:55:00,50.5,43.6,30.20,NW,319,0.0,0.0,77,0.00,,---,0.00,0.00,VWS V14.00,2013-01-21 23:55:00,
2013-01-21 17:59:00,50.5,43.6,30.20,NW,319,0.0,0.0,77,0.00,,---,0.00,0.00,VWS V14.00,2013-01-21 23:59:00,
2013-01-21 18:00:00,50.5,43.6,30.20,NW,319,0.0,0.0,77,0.00,,---,0.00,0.00,VWS V14.00,2013-01-22 00:00:00,
2013-01-21 18:03:00,50.4,43.8,30.20,NW,319,0.0,0.0,78,0.00,,---,0.00,0.00,VWS V14.00,2013-01-22 00:03:00,
2013-01-21 18:07:00,50.1,43.2,30.20,NW,319,0.0,0.0,77,0.00,,---,0.00,0.00,VWS V14.00,2013-01-22 00:07:00,
2013-01-21 18:11:00,49.9,43.0,30.20,NW,319,0.0,0.0,77,0.00,,---,0.00,0.00,VWS V14.00,2013-01-22 00:11:00,
2013-01-21 18:15:00,49.8,42.9,30.20,NW,319,0.0,0.0,77,0.00,,---,0.00,0.00,VWS V14.00,2013-01-22 00:15:00,
2013-01-21 18:19:00,49.6,42.7,30.20,NW,319,0.0,0.0,77,0.00,,---,0.00,0.00,VWS V14.00,2013-01-22 00:19:00,
2013-01-21 18:23:00,49.7,42.8,30.20,NW,319,0.0,0.0,77,0.00,,---,0.00,0.00,VWS V14.00,2013-01-22 00:23:00,
2013-01-21 18:27:00,49.8,43.2,30.20,NW,319,0.0,0.0,78,0.00,,---,0.00,0.00,VWS V14.00,2013-01-22 00:27:00,
2013-01-21 18:30:00,49.8,43.6,30.20,NW,319,0.0,0.0,79,0.00,,---,0.00,0.00,VWS V14.00,2013-01-22 00:30:00,
2013-01-21 18:31:00,49.8,43.6,30.20,NW,319,0.0,0.0,79,0.00,,---,0.00,0.00,VWS V14.00,2013-01-22 00:31:00,
2013-01-21 18:35:00,49.7,43.1,30.20,NW,319,0.0,0.0,78,0.00,,---,0.00,0.00,VWS V14.00,2013-01-22 00:35:00,
2013-01-21 18:39:00,49.7,42.8,30.20,NW,319,0.0,0.0,77,0.00,,---,0.00,0.00,VWS V14.00,2013-01-22 00:39:00,
2013-01-21 18:43:00,49.6,43.4,30.20,NW,319,0.0,0.0,79,0.00,,---,0.00,0.00,VWS V14.00,2013-01-22 00:43:00,
2013-01-21 18:47:00,49.3,43.1,30.20,NW,319,0.0,0.0,79,0.00,,---,0.00,0.00,VWS V14.00,2013-01-22 00:47:00,
2013-01-21 18:51:00,49.1,42.5,30.20,NW,319,0.0,0.0,78,0.00,,---,0.00,0.00,VWS V14.00,2013-01-22 00:51:00,
2013-01-21 18:55:00,48.6,42.1,30.20,NW,319,0.0,0.0,78,0.00,,---,0.00,0.00,VWS V14.00,2013-01-22 00:55:00,
2013-01-21 18:59:00,48.5,41.6,30.21,NNW,327,0.0,0.0,77,0.00,,---,0.00,0.00,VWS V14.00,2013-01-22 00:59:00,
2013-01-21 19:00:00,48.5,41.6,30.21,NNW,327,0.0,0.0,77,0.00,,---,0.00,0.00,VWS V14.00,2013-01-22 01:00:00,
2013-01-21 19:03:00,48.3,41.4,30.21,NNW,327,0.0,0.0,77,0.00,,---,0.00,0.00,VWS V14.00,2013-01-22 01:03:00,
2013-01-21 19:08:00,48.0,41.2,30.21,NNW,327,0.0,0.0,77,0.00,,---,0.00,0.00,VWS V14.00,2013-01-22 01:08:00,
2013-01-21 19:12:00,47.8,41.3,30.21,NNW,327,0.0,0.0,78,0.00,,---,0.00,0.00,VWS V14.00,2013-01-22 01:12:00,
2013-01-21 19:16:00,48.1,41.2,30.21,NNW,327,0.0,0.0,77,0.00,,---,0.00,0.00,VWS V14.00,2013-01-22 01:16:00,
2013-01-21 19:20:00,48.4,41.5,30.21,NNW,327,0.0,0.0,77,0.00,,---,0.00,0.00,VWS V14.00,2013-01-22 01:20:00,
2013-01-21 19:24:00,48.8,42.6,30.21,NNW,327,0.0,0.0,79,0.00,,---,0.00,0.00,VWS V14.00,2013-01-22 01:24:00,
2013-01-21 19:28:00,48.8,42.3,30.21,NNW,327,0.0,0.0,78,0.00,,---,0.00,0.00,VWS V14.00,2013-01-22 01:28:00,
2013-01-21 19:30:00,48.8,41.9,30.21,NNW,327,0.0,0.0,77,0.00,,---,0.00,0.00,VWS V14.00,2013-01-22 01:30:00,
2013-01-21 19:32:00,48.7,41.8,30.21,NNW,327,0.0,0.0,77,0.00,,---,0.00,0.00,VWS V14.00,2013-01-22 01:32:00,
2013-01-21 19:36:00,48.7,41.5,30.21,NNW,327,0.0,0.0,76,0.00,,---,0.00,0.00,VWS V14.00,2013-01-22 01:36:00,
2013-01-21 19:40:00,48.6,41.4,30.21,NNW,327,0.0,0.0,76,0.00,,---,0.00,0.00,VWS V14.00,2013-01-22 01:40:00,
2013-01-21 19:44:00,48.0,41.2,30.21,NNW,327,0.0,0.0,77,0.00,,---,0.00,0.00,VWS V14.00,2013-01-22 01:44:00,
2013-01-21 19:48:00,47.9,40.7,30.21,NNW,327,0.0,0.0,76,0.00,,---,0.00,0.00,VWS V14.00,2013-01-22 01:48:00,
2013-01-21 19:52:00,47.8,40.6,30.21,NNW,327,0.0,0.0,76,0.00,,---,0.00,0.00,VWS V14.00,2013-01-22 01:52:00,
2013-01-21 19:56:00,47.5,40.3,30.21,NNW,327,0.0,0.0,76,0.00,,---,0.00,0.00,VWS V14.00,2013-01-22 01:56:00,
2013-01-21 20:00:00,47.4,40.2,30.22,NNW,327,0.0,0.0,76,0.00,,---,0.00,0.00,VWS V14.00,2013-01-22 02:00:00,
2013-01-21 20:04:00,47.4,40.2,30.22,NNW,327,0.0,0.0,76,0.00,,---,0.00,0.00,VWS V14.00,2013-01-22 02:04:00,
2013-01-21 20:08:00,47.1,39.9,30.22,NNW,327,0.0,0.0,76,0.00,,---,0.00,0.00,VWS V14.00,2013-01-22 02:08:00,
2013-01-21 20:12:00,47.1,39.9,30.22,NNW,327,0.0,0.0,76,0.00,,---,0.00,0.00,VWS V14.00,2013-01-22 02:12:00,
2013-01-21 20:16:00,47.3,40.5,30.22,NNW,327,0.0,0.0,77,0.00,,---,0.00,0.00,VWS V14.00,2013-01-22 02:16:00,
2013-01-21 20:20:00,47.3,41.1,30.22,NNW,327,0.0,0.0,79,0.00,,---,0.00,0.00,VWS V14.00,2013-01-22 02:20:00,
2013-01-21 20:24:00,47.4,41.2,30.22,NNW,327,0.0,0.0,79,0.00,,---,0.00,0.00,VWS V14.00,2013-01-22 02:24:00,
2013-01-21 20:28:00,47.4,41.9,30.22,NNW,327,0.0,0.0,81,0.00,,---,0.00,0.00,VWS V14.00,2013-01-22 02:28:00,
2013-01-21 20:30:00,47.1,41.6,30.23,NNW,327,0.0,0.0,81,0.00,,---,0.00,0.00,VWS V14.00,2013-01-22 02:30:00,
2013-01-21 20:32:00,46.5,40.7,30.23,NNW,327,0.0,0.0,80,0.00,,---,0.00,0.00,VWS V14.00,2013-01-22 02:32:00,
2013-01-21 20:36:00,45.7,41.2,30.23,NNW,327,0.0,0.0,84,0.00,,---,0.00,0.00,VWS V14.00,2013-01-22 02:36:00,
2013-01-21 20:40:00,45.1,40.2,30.23,NNW,327,0.0,0.0,83,0.00,,---,0.00,0.00,VWS V14.00,2013-01-22 02:40:00,
2013-01-21 20:44:00,45.0,40.2,30.23,NNW,327,0.0,0.0,83,0.00,,---,0.00,0.00,VWS V14.00,2013-01-22 02:44:00,
2013-01-21 20:48:00,45.0,39.8,30.23,NNW,327,0.0,0.0,82,0.00,,---,0.00,0.00,VWS V14.00,2013-01-22 02:48:00,
2013-01-21 20:52:00,45.6,39.8,30.23,NNW,327,0.0,0.0,80,0.00,,---,0.00,0.00,VWS V14.00,2013-01-22 02:52:00,
2013-01-21 20:56:00,45.8,39.3,30.23,NNW,327,0.0,0.0,78,0.00,,---,0.00,0.00,VWS V14.00,2013-01-22 02:56:00,
2013-01-21 21:00:00,45.8,39.3,30.23,NNW,327,0.0,0.0,78,0.00,,---,0.00,0.00,VWS V14.00,2013-01-22 03:00:00,
2013-01-21 21:04:00,45.8,39.3,30.23,NNW,327,0.0,0.0,78,0.00,,---,0.00,0.00,VWS V14.00,2013-01-22 03:04:00,
2013-01-21 21:08:00,45.0,39.8,30.23,NNW,327,0.0,0.0,82,0.00,,---,0.00,0.00,VWS V14.00,2013-01-22 03:08:00,
2013-01-21 21:12:00,44.4,38.9,30.23,NNW,327,0.0,0.0,81,0.00,,---,0.00,0.00,VWS V14.00,2013-01-22 03:12:00,
2013-01-21 21:16:00,44.3,38.8,30.23,NNW,327,0.0,0.0,81,0.00,,---,0.00,0.00,VWS V14.00,2013-01-22 03:16:00,
2013-01-21 21:20:00,44.2,39.1,30.23,NNW,327,0.0,0.0,82,0.00,,---,0.00,0.00,VWS V14.00,2013-01-22 03:20:00,
2013-01-21 21:24:00,44.2,39.7,30.23,NNW,327,0.0,0.0,84,0.00,,---,0.00,0.00,VWS V14.00,2013-01-22 03:24:00,
2013-01-21 21:28:00,44.2,40.0,30.23,NNW,327,0.0,0.0,85,0.00,,---,0.00,0.00,VWS V14.00,2013-01-22 03:28:00,
2013-01-21 21:30:00,44.1,39.9,30.23,NNW,327,0.0,0.0,85,0.00,,---,0.00,0.00,VWS V14.00,2013-01-22 03:30:00,
2013-01-21 21:32:00,44.1,39.9,30.23,NNW,327,0.0,0.0,85,0.00,,---,0.00,0.00,VWS V14.00,2013-01-22 03:32:00,
2013-01-21 21:36:00,43.8,39.6,30.23,NNW,327,0.0,0.0,85,0.00,,---,0.00,0.00,VWS V14.00,2013-01-22 03:36:00,
2013-01-21 21:41:00,43.6,39.1,30.23,NNW,327,0.0,0.0,84,0.00,,---,0.00,0.00,VWS V14.00,2013-01-22 03:41:00,
2013-01-21 21:45:00,44.0,39.2,30.24,NNW,327,0.0,0.0,83,0.00,,---,0.00,0.00,VWS V14.00,2013-01-22 03:45:00,
2013-01-21 21:49:00,44.6,39.1,30.24,NNW,327,0.0,0.0,81,0.00,,---,0.00,0.00,VWS V14.00,2013-01-22 03:49:00,
2013-01-21 21:53:00,45.9,39.8,30.24,NE,39,0.0,0.0,79,0.00,,---,0.00,0.00,VWS V14.00,2013-01-22 03:53:00,
2013-01-21 21:57:00,46.6,39.8,30.24,East,83,2.0,3.0,77,0.00,,---,0.00,0.00,VWS V14.00,2013-01-22 03:57:00,
2013-01-21 22:00:00,46.9,40.1,30.23,East,83,3.0,4.0,77,0.00,,---,0.00,0.00,VWS V14.00,2013-01-22 04:00:00,
2013-01-21 22:01:00,47.0,39.8,30.23,East,83,2.0,3.0,76,0.00,,---,0.00,0.00,VWS V14.00,2013-01-22 04:01:00,
2013-01-21 22:05:00,47.3,39.1,30.23,East,85,2.0,4.0,73,0.00,,---,0.00,0.00,VWS V14.00,2013-01-22 04:05:00,
2013-01-21 22:09:00,47.5,39.3,30.23,East,82,4.0,4.0,73,0.00,,---,0.00,0.00,VWS V14.00,2013-01-22 04:09:00,
2013-01-21 22:13:00,47.5,38.9,30.23,East,79,4.0,4.0,72,0.00,,---,0.00,0.00,VWS V14.00,2013-01-22 04:13:00,
2013-01-21 22:17:00,47.4,39.2,30.23,East,82,3.0,5.0,73,0.00,,---,0.00,0.00,VWS V14.00,2013-01-22 04:17:00,
2013-01-21 22:21:00,47.3,38.7,30.23,East,81,4.0,5.0,72,0.00,,---,0.00,0.00,VWS V14.00,2013-01-22 04:21:00,
2013-01-21 22:25:00,47.0,38.8,30.23,ENE,76,1.0,5.0,73,0.00,,---,0.00,0.00,VWS V14.00,2013-01-22 04:25:00,
2013-01-21 22:29:00,46.8,38.6,30.24,ENE,76,1.0,5.0,73,0.00,,---,0.00,0.00,VWS V14.00,2013-01-22 04:29:00,
2013-01-21 22:30:00,46.7,38.9,30.24,ENE,76,2.0,5.0,74,0.00,,---,0.00,0.00,VWS V14.00,2013-01-22 04:30:00,
2013-01-21 22:33:00,46.6,38.1,30.24,ENE,75,3.0,3.0,72,0.00,,---,0.00,0.00,VWS V14.00,2013-01-22 04:33:00,
2013-01-21 22:37:00,46.5,38.3,30.24,ENE,75,1.0,3.0,73,0.00,,---,0.00,0.00,VWS V14.00,2013-01-22 04:37:00,
2013-01-21 22:41:00,46.4,37.9,30.24,ENE,75,1.0,3.0,72,0.00,,---,0.00,0.00,VWS V14.00,2013-01-22 04:41:00,
2013-01-21 22:49:00,46.0,38.2,30.24,ENE,75,0.0,3.0,74,0.00,,---,0.00,0.00,VWS V14.00,2013-01-22 04:49:00,
2013-01-21 22:53:00,45.9,37.8,30.24,ENE,75,0.0,3.0,73,0.00,,---,0.00,0.00,VWS V14.00,2013-01-22 04:53:00,
2013-01-21 22:57:00,45.8,37.3,30.24,ENE,75,0.0,3.0,72,0.00,,---,0.00,0.00,VWS V14.00,2013-01-22 04:57:00,
2013-01-21 23:00:00,45.8,37.0,30.24,ENE,75,0.0,3.0,71,0.00,,---,0.00,0.00,VWS V14.00,2013-01-22 05:00:00,
2013-01-21 23:01:00,45.8,37.0,30.24,ENE,75,0.0,0.0,71,0.00,,---,0.00,0.00,VWS V14.00,2013-01-22 05:01:00,
2013-01-21 23:05:00,45.2,38.1,30.24,ENE,75,0.0,0.0,76,0.00,,---,0.00,0.00,VWS V14.00,2013-01-22 05:05:00,
2013-01-21 23:09:00,44.7,37.9,30.24,ENE,75,0.0,0.0,77,0.00,,---,0.00,0.00,VWS V14.00,2013-01-22 05:09:00,
2013-01-21 23:13:00,44.3,37.2,30.24,ENE,75,0.0,0.0,76,0.00,,---,0.00,0.00,VWS V14.00,2013-01-22 05:13:00,
2013-01-21 23:17:00,43.5,36.8,30.24,ENE,75,0.0,0.0,77,0.00,,---,0.00,0.00,VWS V14.00,2013-01-22 05:17:00,
2013-01-21 23:21:00,42.6,36.5,30.24,ENE,75,0.0,0.0,79,0.00,,---,0.00,0.00,VWS V14.00,2013-01-22 05:21:00,
2013-01-21 23:25:00,41.8,36.1,30.24,ENE,75,0.0,0.0,80,0.00,,---,0.00,0.00,VWS V14.00,2013-01-22 05:25:00,
2013-01-21 23:29:00,41.7,36.0,30.24,ENE,75,0.0,0.0,80,0.00,,---,0.00,0.00,VWS V14.00,2013-01-22 05:29:00,
2013-01-21 23:30:00,41.8,36.1,30.24,ENE,75,0.0,0.0,80,0.00,,---,0.00,0.00,VWS V14.00,2013-01-22 05:30:00,
2013-01-21 23:33:00,41.9,36.2,30.24,ENE,75,0.0,0.0,80,0.00,,---,0.00,0.00,VWS V14.00,2013-01-22 05:33:00,
2013-01-21 23:37:00,42.3,35.9,30.24,ENE,75,0.0,0.0,78,0.00,,---,0.00,0.00,VWS V14.00,2013-01-22 05:37:00,
2013-01-21 23:41:00,42.5,36.1,30.24,ENE,75,0.0,0.0,78,0.00,,---,0.00,0.00,VWS V14.00,2013-01-22 05:41:00,
2013-01-21 23:46:00,42.0,35.7,30.24,ENE,75,0.0,0.0,78,0.00,,---,0.00,0.00,VWS V14.00,2013-01-22 05:46:00,
2013-01-21 23:50:00,41.5,35.8,30.24,ENE,75,0.0,0.0,80,0.00,,---,0.00,0.00,VWS V14.00,2013-01-22 05:50:00,
2013-01-21 23:54:00,41.4,36.0,30.24,ENE,75,0.0,0.0,81,0.00,,---,0.00,0.00,VWS V14.00,2013-01-22 05:54:00,
2013-01-21 23:58:00,41.0,36.2,30.24,ENE,75,0.0,0.0,83,0.00,,---,0.00,0.00,VWS V14.00,2013-01-22 05:58:00,